Погода в Ивделе

Погода в Ивделе : погода сейчас, прогноз погоды и архив. Всё, что Вы хотите узнать о погоде в Ивделе!

Хотите узнать прогноз погоды в Ивделе? Тогда Вам сюда: Погода в Ивделе

Поиск расширенной информации на нашем сайте:

Другие новости

Новости СМИ2

Главная страница сайта

Новости сайта

03.07.2017

Напоминаем, что на нашем специализированном сайте Метеоцентр.Азия вы можете получить высокодетализированные автоматические прогнозы погоды по пунктам России, СНГ и мира в авиационном формате (включающие направление и скорость ветра, видимость, явления погоды, количество и форму облачности, нижнюю и верхнюю границу облачности).

Рекомендуем: Солнцезащитные очки интернет-магазин купить солнцезащитные очки.

Погода в Ивделе - сегодня

Время (UTC), дата Ветер
(°,м/с) 
Видим.   Явления Облачность Т
(°С)
Тd
(°С)
f(%) Тe
(°С)
Pmin
(гПа)
dP
(гПа)
Po
(мм)
O2
(г/м3)
Тmin Tmax R s Состояние
почвы
09 17.08.17 340 (С) 20000 м    8/8 600 м кучево-дожд., верхняя 
[Cb cap|Ci fib]
+17.1 +3.9 41 +18  1026.3  0.9  761  288           
12 17.08.17 350 (С) 20000 м    8/8 600 м кучево-дожд. 
[Cb cap]
+17 +5 45 +18  1026.7  0.4  762  288           
15 17.08.17 тихо ()   20000 м    3/1 1000 м верхняя 
[Sc|Ci fib]
+16.5 +6.5 52 +17  1027.2  0.5  762  288    +18.9       
18 17.08.17 330 (СЗ) 10 км    1/0 верхняя 
[Ci fib]
+9.3 +5.7 78 +9  1028.3  0.8  763  296           
21 17.08.17 330 (СЗ) 10 км    ясно 
+6.6 +4.4 86 +8  1028.8  0.4  763  299           
00 18.08.17 тихо ()   20000 м    9/0 верхняя 
[Ci fib]
+4.3 +2.8 90 +4  1029.1  0.1  763  302           
03 18.08.17 330 (СЗ) 20000 м    8/0 верхняя 
[Ci fib]
+9.7 +5 72 +11  1028.8  763  296  +4        сухая 
06 18.08.17 230 (ЮЗ) 20000 м    8/0 верхняя 
[Cc]
+16.3 +5.5 49 +18  1027.9  -0.6  762  289           
09 18.08.17 230 (ЮЗ) 20000 м    8/4 600 м верхняя 
[Cu hum|Ci fib]
+19.4 +5.8 41 +21  1026.4  -1.4  761  286           
12 18.08.17 180 (Ю) 20000 м    8/4 600 м средняя, верхняя 
[Cu Sc|Ac trans|Ci fib]
+20.8 +7 41 +21  1024.1  -2.2  760  283           
15 18.08.17 270 (З) 20000 м    9/9 600 м кучево-дожд. 
[Cb cap]
+17.3 +9.2 59 +19  1023.1  -1.1  759  286    +21.3       
18 18.08.17 150 (ЮВ) 10 км    9/9 600 м кучево-дожд. 
[Cb cap]
+12.3 +9.3 82 +14  1023.2  -0.1  759  291           
21 18.08.17 260 (З) 10 км    9/9 600 м кучево-дожд. 
[Cb cap]
+15 +9.5 70 +16  1021.9  -1.2  758  288           
00 19.08.17 040 (СВ) 20000 м    9/8 1000 м верхняя 
[Sc|Ci fib]
+11.8 +9.5 86 +13  1021.3  -0.7  757  291           
03 19.08.17 тихо ()   20000 м    10/3 1000 м верхняя 
[Sc|Ci fib]
+15.9 +10.8 72 +18  1021.3  0.2  758  286  +10.2        сухая 
06 19.08.17 260 (З) 20000 м    8/1 600 м верхняя 
[Cu hum|Cc]
+20.9 +11.9 56 +24  1020.8  -0.4  757  281           
09 19.08.17 290 (З) 20000 м    10/9 600 м кучево-дожд., верхняя 
[Cb cap|Ci fib]
+22.2 +11.6 51 +25  1020.3  -0.4  757  280           
12 19.08.17 270 (З) 20000 м    10/4 600 м кучево-дожд., средняя, верхняя 
[Cb cap|Ac trans|Ci fib]
+20.9 +12.5 59 +25  1020.4  757  281           
15 19.08.17 тихо ()   20000 м    9/3 600 м кучево-дожд., средняя, верхняя 
[Cb cap|Ac trans|Ci fib]
+18.6 +12.7 69 +23  1020.6  0.2  757  283    +22.7       
18 19.08.17 тихо ()   10 км    9/6 600 м кучево-дожд., средняя 
[Cb cap|Ac trans]
+14.9 +12.1 83 +19  1020.8  757  287           
21 19.08.17 100 (В) 10 км    3/0 верхняя 
[Ci fib]
+12.3 +10.8 91 +16  1020.1  -0.8  757  290           
00 20.08.17 тихо ()   35000 м    4/0 средняя, верхняя 
[Ac trans|Ci fib]
+8.9 +7.7 92 +9  1020  -0.2  756  294           
03 20.08.17 тихо ()   20000 м  {туман}  9/0 средняя, верхняя 
[Ac lent|Ci fib]
+13.2 +10.5 84 +15  1018.9  -0.9  756  289  +7.8        сухая 
06 20.08.17 150 (ЮВ) 20000 м  {туман}  6/3 600 м средняя, верхняя 
[Cu Sc|Ac trans|Ci fib]
+20.5 +11.8 57 +24  1017.6  -1  755  281           
09 20.08.17 280 (З) 20000 м    9/8 600 м кучево-дожд., верхняя 
[Cb cap|Ci fib]
+21.4 +13.5 61 +27  1017.1  -0.5  755  279           
Время (UTC), дата Ветер
(°,м/с) 
Видим.   Явления Облачность Т
(°С)
Тd
(°С)
f(%) Тe
(°С)
Pmin
(гПа)
dP
(гПа)
Po
(мм)
O2
(г/м3)
Тmin Tmax R s Состояние
почвы

Для получения пояснительной информации подведите курсор к названию столбца.

ПОГОДА в Ивделе - архив

Всё, что Вы хотите узнать о погоде в Ивделе - удобно и подробно!

Выберите нужную дату (начиная с 1 января 2015* года) и нажмите кнопку "Найти".
Будут отображены архивные сводки погоды по пункту Ивдель, начиная с указанной даты.


Отображать данные в формате CSV (для использования в таблицах Excel)


Внимание! Наш архив погоды предназначен исключительно для личного некоммерческого использования в познавательных целях. Если Вам необходимы официальные справки о состоянии погоды (для производственных, юридических, коммерческих и т.п. целей), обращайтесь в органы Росгидромета.

*Примечание: данная дата относится к архиву по метеостанциям СССР (Россия, СНГ, Балтия).
Архив по метеостанциям Зарубежной Европы и Азии (кроме Китая) хранится 10 дней, по другим регионам земного шара (Китай, Африка, Америка, Австралия, Океания) - 1 день.

Ивдель - район местоположения метеостанции


Название, широта, долгота, высота метеостанции:
Ивдель 60.7°ш. 60.4°д. 95 м над ур. моря [Российская Федерация]

Дополнительная информация

В oтличие oт бoльшинства пoгoдных сайтoв мы публикуем пoдрoбную метеoинфoрмацию в детальнoм прoфессиoнальнoм фoрмате.

Характеристики температуры и влажнoсти вoздуха измеряются на высoте 2 м в тени вдали oт зданий и деревьев.
Скoрoсть ветра измеряется на высoте 10 м (на урoвне рoста челoвека скoрoсть ветра ниже в 1.5-2 раза). Если метеoстанция нахoдится в гoрoде или в лесу, тo скoрoсть ветра занижена на 2-4 м/с пo сравнению с oткрытым местoм. Скoрoсть ветра над акватoриями крупных рек и oзёр, а также на вершинах хoлмoв на 2-5 м/с выше, чем в oбычных услoвиях.
Атмoсфернoе давление в разных тoчках местнoсти мoжет значительнo oтличаться oт давления на метеoстанции, в зависимoсти oт услoвий рельефа (при пoдъёме на 10 м давление пoнижается примернo на 1 мм рт.ст.).